Location: ???????
(54.6339°N, 39.4245°E)
Time: 04:07:09
(UTC+00:00)

NOSS 2-1 (E) - Pass Details

Date: 19 May 2025
Orbit: 385 x 1749 km, 63.3° (Epoch: 07 May)

Event Time Altitude Azimuth Distance (km) Brightness Sun altitude
Exits shadow 20:35:17 34° 170° (S) 712 3.3 -14.8°
Maximum altitude 20:36:03 41° 133° (SE) 607 3.1 -14.8°
Drops below altitude 10° 20:38:56 10° 61° (ENE) 1,425 5.7 -14.9°
Sets 20:40:57 0° 53° (NE) 2,285 6.9 -15.0°
